Location: Le Rocchette
(44.3500°N, 7.8333°E)
Time: 02:26:56
(UTC+00:00)

MOS 1-B - Pass Details

Date: 17 November 2019
Orbit: 905 x 914 km, 99.4° (Epoch: 15 December)

Event Time Altitude Azimuth Distance (km) Brightness Sun altitude
Rises 04:34:52 0° 16° (NNE) 3,554 7.6 -19.9°
Reaches altitude 10° 04:37:18 10° 18° (NNE) 2,607 6.9 -19.4°
Maximum altitude 04:43:07 77° 104° (ESE) 936 4.5 -18.4°
Drops below altitude 10° 04:48:54 10° 191° (S) 2,583 6.7 -17.4°
Sets 04:51:17 0° 193° (SSW) 3,520 7.4 -17.0°
